Weather History for Logan, UT

Change the Weather History Date:

Thursday, August 22, 2013

  Actual Average Record
Temperature  
Mean Temperature 75 °F -  
Max Temperature 90 °F 85 °F 96 °F (1969)
Min Temperature 60 °F 50 °F 39 °F (1959)
Cooling Degree Days 10    
Growing Degree Days 25 (Base 50)    
Moisture  
Dew Point 51 °F    
Average Humidity 48    
Maximum Humidity 80    
Minimum Humidity 22    
Precipitation  
Precipitation 0.00 in - - ()
Sea Level Pressure  
Sea Level Pressure 29.95 in    
Wind  
Wind Speed 4 mph (WSW)    
Max Wind Speed 13 mph    
Max Gust Speed -    
Visibility 10 miles    
Events      
Averages and records for this station are not official NWS values.
T = Trace of Precipitation, MM = Missing Value Source: NWS Daily Summary

Daily Weather History Graph

Daily Weather History Graph

Search for Another Location

Airport:

Trip Planner

Search our weather history database for the weather conditions in past years. The results will help you decide how hot, cold, wet, or windy it might be!

Date:

Astronomy

Aug. 22, 2013 Rise Set
Actual Time 6:43 AM MDT 8:16 PM MDT
Civil Twilight 6:13 AM MDT 8:45 PM MDT
Nautical Twilight 5:38 AM MDT 9:20 PM MDT
Astronomical Twilight 5:00 AM MDT 9:58 PM MDT
Moon 8:59 PM MDT (8/22) 8:38 AM MDT (8/22)
Length of Visible Light 14h 31m
Length of Day
13h 33m
Waning Gibbous, 96% of the Moon is Illuminated
Aug 22
Waning Gibbous
Aug 28
Last Quarter
Sep 5
New
Sep 12
First Quarter
Sep 19
Full

Hourly Weather History & Observations

Time (MDT) Temp. Dew Point Humidity Pressure Visibility Wind Dir Wind Speed Gust Speed Precip Events Conditions
12:51 AM 63.0 °F 54.0 °F 72% 29.98 in 10.0 mi NW 4.6 mph - N/A   Scattered Clouds
1:51 AM 64.0 °F 55.0 °F 73% 29.97 in 10.0 mi Calm Calm - N/A   Clear
2:51 AM 64.0 °F 55.9 °F 75% 29.99 in 10.0 mi NW 3.5 mph - N/A   Clear
3:51 AM 66.0 °F 55.0 °F 68% 29.98 in 10.0 mi Calm Calm - N/A   Clear
4:51 AM 63.0 °F 55.9 °F 78% 30.00 in 10.0 mi NNE 3.5 mph - N/A   Clear
5:51 AM 63.0 °F 55.0 °F 75% 30.00 in 10.0 mi Calm Calm - N/A   Clear
6:51 AM 60.1 °F 54.0 °F 80% 30.03 in 10.0 mi Calm Calm - N/A   Clear
7:51 AM 66.9 °F 51.1 °F 57% 30.04 in 10.0 mi Calm Calm - N/A   Partly Cloudy
8:51 AM 64.0 °F 55.9 °F 75% 30.04 in 10.0 mi West 8.1 mph - 0.00 in   Partly Cloudy
9:51 AM 68.0 °F 55.9 °F 65% 30.04 in 10.0 mi NNE 8.1 mph - N/A   Clear
10:51 AM 73.9 °F 53.1 °F 48% 30.03 in 10.0 mi NNW 5.8 mph - N/A   Clear
11:51 AM 80.1 °F 52.0 °F 38% 30.00 in 10.0 mi Calm Calm - N/A   Clear
12:51 PM 84.9 °F 50.0 °F 30% 29.98 in 10.0 mi Calm Calm - N/A   Clear
1:51 PM 87.1 °F 48.0 °F 26% 29.95 in 10.0 mi Variable 4.6 mph - N/A   Clear
2:51 PM 88.0 °F 48.0 °F 25% 29.92 in 10.0 mi WSW 9.2 mph - N/A   Clear
3:51 PM 89.1 °F 46.9 °F 23% 29.89 in 10.0 mi South 5.8 mph - N/A   Clear
4:51 PM 90.0 °F 46.0 °F 22% 29.86 in 10.0 mi SW 9.2 mph - N/A   Clear
5:51 PM 88.0 °F 45.0 °F 22% 29.85 in 10.0 mi West 4.6 mph - N/A   Clear
6:51 PM 86.0 °F 48.0 °F 27% 29.84 in 10.0 mi SSW 5.8 mph - N/A   Clear
7:51 PM 81.0 °F 48.9 °F 33% 29.85 in 10.0 mi SSE 4.6 mph - N/A   Clear
8:51 PM 81.0 °F 48.0 °F 31% 29.86 in 10.0 mi SW 6.9 mph - N/A   Clear
9:51 PM 81.0 °F 46.9 °F 30% 29.86 in 10.0 mi South 12.7 mph - N/A   Clear
10:51 PM 78.1 °F 48.0 °F 35% 29.87 in 10.0 mi South 3.5 mph - N/A   Clear
11:51 PM 73.9 °F 50.0 °F 43% 29.87 in 10.0 mi NNE 8.1 mph - N/A   Clear